Elkins, WV

12:10 PM EST on January 23, 2017 (GMT -0500)
Elkins-Randolph County

Weather History for KEKN - August, 2012

Change the Weather History Date:

Monday, August 20, 2012

  Actual Average Record
Temperature  
Mean Temperature 66 °F 69 °F  
Max Temperature 75 °F 80 °F 90 °F (1937)
Min Temperature 56 °F 58 °F 40 °F (1981)
Degree Days  
Heating Degree Days 0 1  
Month to date heating degree days 0 5  
Since 1 June heating degree days 70 72  
Since 1 July heating degree days 0 17  
Cooling Degree Days 1 5  
Month to date cooling degree days 96 100  
Year to date cooling degree days 554 381  
Since 1 June cooling degree days 491 358  
Growing Degree Days 16 (Base 50)    
Moisture  
Dew Point 57 °F    
Average Humidity 73    
Maximum Humidity 100    
Minimum Humidity 46    
Precipitation  
Precipitation T in 0.12 in 1.77 in (1924)
Month to date precipitation 1.30 2.58  
Year to date precipitation 31.78 31.55  
Snow  
Snow 0.00 in - - ()
Month to date snowfall 0.0  
Since 1 September snowfall 30.6  
Snow Depth 0.00 in    
Sea Level Pressure  
Sea Level Pressure 29.96 in    
Wind  
Wind Speed 2 mph (NW)    
Max Wind Speed 14 mph    
Max Gust Speed 17 mph    
Visibility 8 miles    
Events Fog    
T = Trace of Precipitation, MM = Missing Value Source: NWS Daily Summary

Daily Weather History Graph

Daily Weather History Graph

Search for Another Location

Airport or City:

Trip Planner

Search our weather history database for the weather conditions in past years. The results will help you decide how hot, cold, wet, or windy it might be!

Date:

Astronomy

Aug. 20, 2012 Rise Set
Actual Time 6:37 AM EDT 8:06 PM EDT
Civil Twilight 6:09 AM EDT 8:34 PM EDT
Nautical Twilight 5:36 AM EDT 9:08 PM EDT
Astronomical Twilight 5:00 AM EDT 9:43 PM EDT
Moon 9:55 AM EDT (8/20) 9:31 PM EDT (8/20)
Length of Visible Light 14h 24m
Length of Day
13h 28m
Waxing Crescent, 11% of the Moon is Illuminated
Aug 20
Waxing Crescent
Aug 24
First Quarter
Aug 31
Full
Sep 8
Last Quarter
Sep 15
New

Hourly Weather History & Observations

Time (EDT) Temp. Dew Point Humidity Pressure Visibility Wind Dir Wind Speed Gust Speed Precip Events Conditions
12:18 AM 60.8 °F 59.0 °F 94% 29.95 in 10.0 mi Calm Calm - N/A   Mostly Cloudy
12:51 AM 61.0 °F 59.0 °F 93% 29.94 in 8.0 mi Calm Calm - N/A   Overcast
1:51 AM 60.1 °F 59.0 °F 96% 29.93 in 8.0 mi Calm Calm - 0.00 in   Mostly Cloudy
2:39 AM 57.2 °F 57.2 °F 100% 29.93 in 1.5 mi Calm Calm - N/A   Scattered Clouds
2:45 AM 59.0 °F 57.2 °F 94% 29.93 in 0.2 mi Calm Calm - N/A Fog Fog
2:51 AM 57.9 °F 57.9 °F 100% 29.91 in 0.2 mi Calm Calm - N/A Fog Fog
3:51 AM 59.0 °F 57.9 °F 96% 29.92 in 0.5 mi Calm Calm - N/A Fog Fog
4:22 AM 59.0 °F 57.2 °F 94% 29.94 in 2.0 mi Calm Calm - N/A   Overcast
4:30 AM 59.0 °F 57.2 °F 94% 29.94 in 7.0 mi Calm Calm - N/A   Overcast
4:40 AM 59.0 °F 57.2 °F 94% 29.94 in 8.0 mi Calm Calm - N/A   Overcast
4:51 AM 59.0 °F 57.9 °F 96% 29.92 in 7.0 mi Calm Calm - N/A   Overcast
5:09 AM 59.0 °F 57.2 °F 94% 29.94 in 6.0 mi Calm Calm - N/A   Overcast
5:51 AM 57.9 °F 57.0 °F 97% 29.94 in 6.0 mi Calm Calm - N/A   Overcast
6:06 AM 57.2 °F 57.2 °F 100% 29.94 in 7.0 mi Calm Calm - N/A   Overcast
6:39 AM 57.2 °F 55.4 °F 94% 29.95 in 7.0 mi Calm Calm - N/A   Mostly Cloudy
6:51 AM 57.0 °F 55.9 °F 96% 29.95 in 4.0 mi Calm Calm - N/A   Scattered Clouds
7:35 AM 57.2 °F 57.2 °F 100% 29.96 in 5.0 mi Calm Calm - N/A   Scattered Clouds
7:44 AM 57.2 °F 57.2 °F 100% 29.96 in 7.0 mi Calm Calm - N/A   Mostly Cloudy
7:51 AM 59.0 °F 57.0 °F 93% 29.96 in 8.0 mi Calm Calm - N/A   Mostly Cloudy
8:11 AM 60.8 °F 57.2 °F 88% 29.97 in 9.0 mi Calm Calm - N/A   Scattered Clouds
8:51 AM 62.1 °F 59.0 °F 90% 29.96 in 9.0 mi Calm Calm - N/A   Mostly Cloudy
8:59 AM 62.6 °F 59.0 °F 88% 29.97 in 9.0 mi Calm Calm - N/A   Mostly Cloudy
9:51 AM 64.9 °F 59.0 °F 81% 29.97 in 10.0 mi Calm Calm - N/A   Overcast
10:51 AM 66.0 °F 60.1 °F 81% 29.97 in 10.0 mi Calm Calm - N/A   Mostly Cloudy
11:03 AM 66.2 °F 59.0 °F 78% 29.98 in 10.0 mi Calm Calm - N/A   Mostly Cloudy
11:49 AM 69.8 °F 57.2 °F 64% 29.97 in 10.0 mi Calm Calm - N/A   Mostly Cloudy
11:51 AM 69.1 °F 59.0 °F 70% 29.96 in 10.0 mi Calm Calm - N/A   Mostly Cloudy
11:59 AM 69.8 °F 59.0 °F 68% 29.97 in 10.0 mi Calm Calm - N/A   Scattered Clouds
12:51 PM 69.1 °F 57.9 °F 68% 29.94 in 10.0 mi NW 9.2 mph - N/A   Mostly Cloudy
1:51 PM 71.1 °F 57.0 °F 61% 29.94 in 10.0 mi NNW 6.9 mph - N/A   Mostly Cloudy
2:51 PM 73.9 °F 54.0 °F 50% 29.92 in 10.0 mi WNW 5.8 mph - N/A   Clear
3:51 PM 71.1 °F 53.1 °F 53% 29.93 in 10.0 mi NNW 8.1 mph - N/A   Scattered Clouds
4:51 PM 73.0 °F 52.0 °F 48% 29.94 in 10.0 mi NW 8.1 mph - N/A   Mostly Cloudy
5:51 PM 73.0 °F 51.1 °F 46% 29.95 in 10.0 mi WNW 5.8 mph - N/A   Clear
6:51 PM 71.1 °F 53.1 °F 53% 29.96 in 10.0 mi WNW 3.5 mph - N/A   Clear
7:51 PM 64.9 °F 57.9 °F 78% 29.99 in 10.0 mi Calm Calm - N/A   Clear
8:51 PM 59.0 °F 55.9 °F 90% 30.00 in 9.0 mi Calm Calm - N/A   Clear
9:51 PM 59.0 °F 55.9 °F 90% 30.02 in 9.0 mi Calm Calm - N/A   Mostly Cloudy
10:51 PM 59.0 °F 55.9 °F 90% 30.03 in 7.0 mi Calm Calm - N/A   Mostly Cloudy
11:51 PM 57.0 °F 55.0 °F 93% 30.05 in 4.0 mi Calm Calm - N/A   Partly Cloudy